• In Hungary
  • List of Countries
  • For 7 days
  • Water Temperature
  • Satellite Maps
  • Weather Map
  • News
  • Weather Widgets
  • user-avatar
    Login

    Hourly Weather Vogvazdino

    Today, 24 May, Thursday

    Time Temperature Precipitation Wind Pressure Humidity
    00:00 +12°C° 0.2 mm 4 mps 752 mmHg 88%
    01:00 +10°C° 0 mm 4 mps 753 mmHg 86%
    02:00 +8°C° 0 mm 4 mps 754 mmHg 83%
    03:00 +7°C° 0 mm 4 mps 754 mmHg 82%
    04:00 +6°C° 0 mm 4 mps 755 mmHg 77%
    05:00 +6°C° 0 mm 4 mps 755 mmHg 72%
    06:00 +6°C° 0 mm 4 mps 756 mmHg 67%
    07:00 +7°C° 0 mm 4 mps 756 mmHg 59%
    08:00 +8°C° 0 mm 4 mps 757 mmHg 52%
    09:00 +10°C° 0 mm 4 mps 758 mmHg 46%
    10:00 +10°C° 0 mm 4 mps 758 mmHg 42%
    11:00 +11°C° 0 mm 4 mps 758 mmHg 39%
    12:00 +12°C° 0 mm 4 mps 758 mmHg 36%
    13:00 +12°C° 0 mm 4 mps 758 mmHg 36%
    14:00 +12°C° 0 mm 4 mps 758 mmHg 35%
    15:00 +10°C° 0 mm 5 mps 758 mmHg 35%
    16:00 +11°C° 0 mm 4 mps 758 mmHg 37%
    17:00 +10°C° 0 mm 4 mps 758 mmHg 39%
    18:00 +8°C° 0 mm 4 mps 758 mmHg 40%
    19:00 +8°C° 0 mm 3 mps 759 mmHg 44%
    20:00 +7°C° 0 mm 3 mps 759 mmHg 47%
    21:00 +6°C° 0 mm 2 mps 759 mmHg 50%
    22:00 +6°C° 0 mm 2 mps 759 mmHg 53%
    23:00 +5°C° 0 mm 2 mps 759 mmHg 56%

    Tomorrow, 25 May, Friday

    Time Temperature Precipitation Wind Pressure Humidity
    00:00 +4°C° 0 mm 2 mps 759 mmHg 59%
    01:00 +4°C° 0 mm 2 mps 759 mmHg 61%
    02:00 +3°C° 0 mm 2 mps 760 mmHg 64%
    03:00 +2°C° 0 mm 3 mps 760 mmHg 66%
    04:00 +2°C° 0 mm 3 mps 760 mmHg 64%
    05:00 +3°C° 0 mm 3 mps 760 mmHg 62%
    06:00 +4°C° 0 mm 3 mps 760 mmHg 59%
    07:00 +4°C° 0 mm 3 mps 761 mmHg 55%
    08:00 +5°C° 0 mm 4 mps 761 mmHg 50%
    09:00 +6°C° 0 mm 4 mps 761 mmHg 45%
    10:00 +7°C° 0 mm 4 mps 761 mmHg 42%
    11:00 +7°C° 0 mm 4 mps 761 mmHg 39%
    12:00 +8°C° 0 mm 4 mps 761 mmHg 36%
    13:00 +10°C° 0 mm 4 mps 761 mmHg 34%
    14:00 +11°C° 0 mm 4 mps 761 mmHg 33%
    15:00 +11°C° 0 mm 4 mps 761 mmHg 31%
    16:00 +11°C° 0 mm 3 mps 761 mmHg 32%
    17:00 +11°C° 0 mm 3 mps 761 mmHg 34%
    18:00 +11°C° 0 mm 3 mps 761 mmHg 35%
    19:00 +10°C° 0 mm 2 mps 762 mmHg 43%
    20:00 +9°C° 0 mm 1 mps 762 mmHg 51%
    21:00 +7°C° 0 mm 1 mps 762 mmHg 59%
    22:00 +7°C° 0 mm 1 mps 762 mmHg 62%
    23:00 +7°C° 0 mm 1 mps 762 mmHg 65%

    Day after tomorrow, 26 May, Saturday

    Time Temperature Precipitation Wind Pressure Humidity
    00:00 +6°C° 0 mm 1 mps 762 mmHg 68%
    01:00 +6°C° 0 mm 1 mps 762 mmHg 68%
    02:00 +6°C° 0 mm 2 mps 762 mmHg 67%
    03:00 +6°C° 0 mm 2 mps 762 mmHg 67%
    04:00 +7°C° 0 mm 2 mps 762 mmHg 62%
    05:00 +8°C° 0 mm 2 mps 761 mmHg 57%
    06:00 +10°C° 0 mm 2 mps 761 mmHg 53%
    07:00 +13°C° 0 mm 2 mps 761 mmHg 47%
    08:00 +15°C° 0 mm 2 mps 760 mmHg 42%
    09:00 +17°C° 0 mm 3 mps 760 mmHg 37%
    10:00 +18°C° 0 mm 3 mps 759 mmHg 35%
    11:00 +19°C° 0 mm 3 mps 759 mmHg 33%
    12:00 +20°C° 0 mm 3 mps 758 mmHg 31%
    13:00 +21°C° 0 mm 3 mps 758 mmHg 30%
    14:00 +22°C° 0 mm 3 mps 757 mmHg 30%
    15:00 +22°C° 0 mm 3 mps 757 mmHg 29%
    16:00 +23°C° 0 mm 2 mps 756 mmHg 32%
    17:00 +23°C° 0 mm 2 mps 755 mmHg 34%
    18:00 +23°C° 0 mm 1 mps 755 mmHg 37%
    19:00 +20°C° 0 mm 2 mps 754 mmHg 43%
    20:00 +18°C° 0 mm 2 mps 754 mmHg 49%
    21:00 +16°C° 0 mm 2 mps 753 mmHg 55%
    22:00 +16°C° 0 mm 3 mps 753 mmHg 54%
    23:00 +16°C° 0 mm 3 mps 753 mmHg 54%

    27 May, Sunday

    Time Temperature Precipitation Wind Pressure Humidity
    00:00 +15°C° 0 mm 4 mps 753 mmHg 54%
    01:00 +13°C° 0 mm 3 mps 753 mmHg 61%
    02:00 +10°C° 0 mm 2 mps 754 mmHg 67%
    03:00 +8°C° 0 mm 2 mps 754 mmHg 74%
    04:00 +10°C° 0 mm 1 mps 754 mmHg 69%
    05:00 +11°C° 0 mm 1 mps 754 mmHg 63%
    06:00 +11°C° 0 mm 1 mps 754 mmHg 57%
    07:00 +12°C° 0 mm 1 mps 754 mmHg 55%
    08:00 +12°C° 0 mm 2 mps 753 mmHg 53%
    09:00 +13°C° 0 mm 2 mps 753 mmHg 51%
    10:00 +12°C° 0.3 mm 3 mps 753 mmHg 51%
    11:00 +12°C° 0.3 mm 4 mps 753 mmHg 51%
    12:00 +12°C° 0.3 mm 5 mps 753 mmHg 51%
    13:00 +12°C° 0.1 mm 5 mps 753 mmHg 45%
    14:00 +11°C° 0.1 mm 6 mps 753 mmHg 39%
    15:00 +13°C° 0.1 mm 6 mps 753 mmHg 34%
    16:00 +11°C° 0 mm 6 mps 753 mmHg 36%
    17:00 +10°C° 0 mm 6 mps 754 mmHg 38%
    18:00 +9°C° 0 mm 6 mps 754 mmHg 41%
    19:00 +8°C° 0 mm 5 mps 754 mmHg 43%
    20:00 +7°C° 0 mm 4 mps 755 mmHg 46%
    21:00 +7°C° 0 mm 3 mps 755 mmHg 48%
    22:00 +5°C° 0 mm 3 mps 755 mmHg 51%
    23:00 +3°C° 0 mm 4 mps 756 mmHg 54%

    28 May, Monday

    Time Temperature Precipitation Wind Pressure Humidity
    00:00 +1°C° 0 mm 4 mps 756 mmHg 56%
    01:00 +1°C° 0 mm 4 mps 756 mmHg 58%
    02:00 +1°C° 0 mm 4 mps 756 mmHg 61%
    03:00 0°C° 0 mm 4 mps 757 mmHg 63%
    04:00 +1°C° 0 mm 5 mps 757 mmHg 60%
    05:00 +2°C° 0 mm 5 mps 757 mmHg 58%
    06:00 +3°C° 0 mm 5 mps 758 mmHg 55%
    07:00 +3°C° 0 mm 5 mps 758 mmHg 53%
    08:00 +5°C° 0 mm 5 mps 758 mmHg 51%
    09:00 +4°C° 0 mm 6 mps 758 mmHg 49%
    10:00 +6°C° 0 mm 5 mps 759 mmHg 46%
    11:00 +7°C° 0 mm 5 mps 759 mmHg 44%
    12:00 +7°C° 0 mm 5 mps 759 mmHg 42%
    13:00 +8°C° 0 mm 5 mps 759 mmHg 39%
    14:00 +9°C° 0 mm 5 mps 759 mmHg 37%
    15:00 +11°C° 0 mm 4 mps 758 mmHg 34%
    16:00 +11°C° 0 mm 4 mps 758 mmHg 35%
    17:00 +11°C° 0 mm 4 mps 758 mmHg 36%
    18:00 +11°C° 0 mm 4 mps 758 mmHg 37%
    19:00 +10°C° 0 mm 3 mps 758 mmHg 47%
    20:00 +9°C° 0 mm 3 mps 758 mmHg 57%
    21:00 +8°C° 0 mm 2 mps 758 mmHg 67%
    22:00 +7°C° 0 mm 2 mps 758 mmHg 71%
    23:00 +7°C° 0 mm 2 mps 757 mmHg 76%

    29 May, Tuesday

    Time Temperature Precipitation Wind Pressure Humidity
    00:00 +6°C° 0 mm 2 mps 757 mmHg 80%
    01:00 +6°C° 0 mm 2 mps 757 mmHg 82%
    02:00 +7°C° 0 mm 3 mps 757 mmHg 83%
    03:00 +7°C° 0 mm 3 mps 757 mmHg 85%
    04:00 +8°C° 0.1 mm 3 mps 756 mmHg 83%
    05:00 +7°C° 0.1 mm 4 mps 756 mmHg 82%
    06:00 +8°C° 0.1 mm 4 mps 756 mmHg 80%
    07:00 +8°C° 0.3 mm 4 mps 756 mmHg 81%
    08:00 +8°C° 0.3 mm 4 mps 756 mmHg 82%
    09:00 +10°C° 0.3 mm 4 mps 756 mmHg 83%
    10:00 +10°C° 0.2 mm 4 mps 755 mmHg 81%
    11:00 +11°C° 0.2 mm 4 mps 755 mmHg 79%
    12:00 +10°C° 0.2 mm 5 mps 755 mmHg 77%
    13:00 +12°C° 0.2 mm 4 mps 754 mmHg 77%
    14:00 +12°C° 0.2 mm 4 mps 754 mmHg 76%
    15:00 +12°C° 0.2 mm 4 mps 753 mmHg 76%
    16:00 +12°C° 0.6 mm 3 mps 753 mmHg 81%
    17:00 +11°C° 0.6 mm 3 mps 752 mmHg 86%
    18:00 +12°C° 0.6 mm 2 mps 751 mmHg 91%
    19:00 +10°C° 0.4 mm 2 mps 750 mmHg 92%
    20:00 +10°C° 0.4 mm 2 mps 750 mmHg 94%
    21:00 +9°C° 0.4 mm 2 mps 749 mmHg 95%
    22:00 +9°C° 0.5 mm 2 mps 748 mmHg 95%
    23:00 +9°C° 0.5 mm 2 mps 748 mmHg 96%
    Show more